Location: Cartersville (historical)
(42.9944°N, 93.0869°W)
Time: 14:54:30
(UTC+00:00)

Tiangong - Pass Details

Date: 10 October 2025
Orbit: 385 x 394 km, 41.5° (Epoch: 16 November)

Event Time Altitude Azimuth Distance (km) Brightness Sun altitude
Exits shadow 11:16:04 10° 216° (SW) 1,449 0.4 -12.6°
Maximum altitude 11:18:52 27° 157° (SSE) 827 -0.2 -12.0°
Drops below altitude 10° 11:21:43 10° 97° (E) 1,465 2.3 -11.5°
Sets 11:24:01 0° 85° (E) 2,328 4.0 -11.1°
